Year,Month,Day,Hour,Minute,Value (Times are PST for insolation in W/m^2)
2007,04,01,00,00,0.00
2007,04,01,00,01,0.00
2007,04,01,00,02,0.00
2007,04,01,00,03,0.00
2007,04,01,00,04,0.00
2007,04,01,00,05,0.00
2007,04,01,00,06,0.00
2007,04,01,00,07,0.00
2007,04,01,00,08,0.00
2007,04,01,00,09,0.00
2007,04,01,00,10,0.00
2007,04,01,00,11,0.00
2007,04,01,00,12,0.00
2007,04,01,00,13,0.00
2007,04,01,00,14,0.00
2007,04,01,00,15,0.00
2007,04,01,00,16,0.00
2007,04,01,00,17,0.00
2007,04,01,00,18,0.00
2007,04,01,00,19,0.00
2007,04,01,00,20,0.00
2007,04,01,00,21,0.00
2007,04,01,00,22,0.00
2007,04,01,00,23,0.00
2007,04,01,00,24,0.00
2007,04,01,00,25,0.00
2007,04,01,00,26,0.00
2007,04,01,00,27,0.00
2007,04,01,00,28,0.00
2007,04,01,00,29,0.00
2007,04,01,00,30,0.00
2007,04,01,00,31,0.00
2007,04,01,00,32,0.00
2007,04,01,00,33,0.00
2007,04,01,00,34,0.00
2007,04,01,00,35,0.00
2007,04,01,00,36,0.00
2007,04,01,00,37,0.00
2007,04,01,00,38,0.00
2007,04,01,00,39,0.00
2007,04,01,00,40,0.00
2007,04,01,00,41,0.00
2007,04,01,00,42,0.00
2007,04,01,00,43,0.00
2007,04,01,00,44,0.00
2007,04,01,00,45,0.00
2007,04,01,00,46,0.00
2007,04,01,00,47,0.00
2007,04,01,00,48,0.00
2007,04,01,00,49,0.00
2007,04,01,00,50,0.00
2007,04,01,00,51,0.00
2007,04,01,00,52,0.00
2007,04,01,00,53,0.00
2007,04,01,00,54,0.00
2007,04,01,00,55,0.00
2007,04,01,00,56,0.00
2007,04,01,00,57,0.00
2007,04,01,00,58,0.00
2007,04,01,00,59,0.00
2007,04,01,01,00,0.00
2007,04,01,01,01,0.00
2007,04,01,01,02,0.00
2007,04,01,01,03,0.00
2007,04,01,01,04,0.00
2007,04,01,01,05,0.00
2007,04,01,01,06,0.00
2007,04,01,01,07,0.00
2007,04,01,01,08,0.00
2007,04,01,01,09,0.00
2007,04,01,01,10,0.00
2007,04,01,01,11,0.00
2007,04,01,01,12,0.00
2007,04,01,01,13,0.00
2007,04,01,01,14,0.00
2007,04,01,01,15,0.00
2007,04,01,01,16,0.00
2007,04,01,01,17,0.00
2007,04,01,01,18,0.00
2007,04,01,01,19,0.00
2007,04,01,01,20,0.00
2007,04,01,01,21,0.00
2007,04,01,01,22,0.00
2007,04,01,01,23,0.00
2007,04,01,01,24,0.00
2007,04,01,01,25,0.00
2007,04,01,01,26,0.00
2007,04,01,01,27,0.00
2007,04,01,01,28,0.00
2007,04,01,01,29,0.00
2007,04,01,01,30,0.00
2007,04,01,01,31,0.00
2007,04,01,01,32,0.00
2007,04,01,01,33,0.00
2007,04,01,01,34,0.00
2007,04,01,01,35,0.00
2007,04,01,01,36,0.00
2007,04,01,01,37,0.00
2007,04,01,01,38,0.00
2007,04,01,01,39,0.00
2007,04,01,01,40,0.00
2007,04,01,01,41,0.00
2007,04,01,01,42,0.00
2007,04,01,01,43,0.00
2007,04,01,01,44,0.00
2007,04,01,01,45,0.00
2007,04,01,01,46,0.00
2007,04,01,01,47,0.00
2007,04,01,01,48,0.00
2007,04,01,01,49,0.00
2007,04,01,01,50,0.00
2007,04,01,01,51,0.00
2007,04,01,01,52,0.00
2007,04,01,01,53,0.00
2007,04,01,01,54,0.00
2007,04,01,01,55,0.00
2007,04,01,01,56,0.00
2007,04,01,01,57,0.00
2007,04,01,01,58,0.00
2007,04,01,01,59,0.00
2007,04,01,02,00,0.00
2007,04,01,02,01,0.00
2007,04,01,02,02,0.00
2007,04,01,02,03,0.00
2007,04,01,02,04,0.00
2007,04,01,02,05,0.00
2007,04,01,02,06,0.00
2007,04,01,02,07,0.00
2007,04,01,02,08,0.00
2007,04,01,02,09,0.00
2007,04,01,02,10,0.00
2007,04,01,02,11,0.00
2007,04,01,02,12,0.00
2007,04,01,02,13,0.00
2007,04,01,02,14,0.00
2007,04,01,02,15,0.00
2007,04,01,02,16,0.00
2007,04,01,02,17,0.00
2007,04,01,02,18,0.00
2007,04,01,02,19,0.00
2007,04,01,02,20,0.00
2007,04,01,02,21,0.00
2007,04,01,02,22,0.00
2007,04,01,02,23,0.00
2007,04,01,02,24,0.00
2007,04,01,02,25,0.00
2007,04,01,02,26,0.00
2007,04,01,02,27,0.00
2007,04,01,02,28,0.00
2007,04,01,02,29,0.00
2007,04,01,02,30,0.00
2007,04,01,02,31,0.00
2007,04,01,02,32,0.00
2007,04,01,02,33,0.00
2007,04,01,02,34,0.00
2007,04,01,02,35,0.00
2007,04,01,02,36,0.00
2007,04,01,02,37,0.00
2007,04,01,02,38,0.00
2007,04,01,02,39,0.00
2007,04,01,02,40,0.00
2007,04,01,02,41,0.00
2007,04,01,02,42,0.00
2007,04,01,02,43,0.00
2007,04,01,02,44,0.00
2007,04,01,02,45,0.00
2007,04,01,02,46,0.00
2007,04,01,02,47,0.00
2007,04,01,02,48,0.00
2007,04,01,02,49,0.00
2007,04,01,02,50,0.00
2007,04,01,02,51,0.00
2007,04,01,02,52,0.00
2007,04,01,02,53,0.00
2007,04,01,02,54,0.00
2007,04,01,02,55,0.00
2007,04,01,02,56,0.00
2007,04,01,02,57,0.00
2007,04,01,02,58,0.00
2007,04,01,02,59,0.00
2007,04,01,03,00,0.00
2007,04,01,03,01,0.00
2007,04,01,03,02,0.00
2007,04,01,03,03,0.00
2007,04,01,03,04,0.00
2007,04,01,03,05,0.00
2007,04,01,03,06,0.00
2007,04,01,03,07,0.00
2007,04,01,03,08,0.00
2007,04,01,03,09,0.00
2007,04,01,03,10,0.00
2007,04,01,03,11,0.00
2007,04,01,03,12,0.00
2007,04,01,03,13,0.00
2007,04,01,03,14,0.00
2007,04,01,03,15,0.00
2007,04,01,03,16,0.00
2007,04,01,03,17,0.00
2007,04,01,03,18,0.00
2007,04,01,03,19,0.00
2007,04,01,03,20,0.00
2007,04,01,03,21,0.00
2007,04,01,03,22,0.00
2007,04,01,03,23,0.00
2007,04,01,03,24,0.00
2007,04,01,03,25,0.00
2007,04,01,03,26,0.00
2007,04,01,03,27,0.00
2007,04,01,03,28,0.00
2007,04,01,03,29,0.00
2007,04,01,03,30,0.00
2007,04,01,03,31,0.00
2007,04,01,03,32,0.00
2007,04,01,03,33,0.00
2007,04,01,03,34,0.00
2007,04,01,03,35,0.00
2007,04,01,03,36,0.00
2007,04,01,03,37,0.00
2007,04,01,03,38,0.00
2007,04,01,03,39,0.00
2007,04,01,03,40,0.00
2007,04,01,03,41,0.00
2007,04,01,03,42,0.00
2007,04,01,03,43,0.00
2007,04,01,03,44,0.00
2007,04,01,03,45,0.00
2007,04,01,03,46,0.00
2007,04,01,03,47,0.00
2007,04,01,03,48,0.00
2007,04,01,03,49,0.00
2007,04,01,03,50,0.00
2007,04,01,03,51,0.00
2007,04,01,03,52,0.00
2007,04,01,03,53,0.00
2007,04,01,03,54,0.00
2007,04,01,03,55,0.00
2007,04,01,03,56,0.00
2007,04,01,03,57,0.00
2007,04,01,03,58,0.00
2007,04,01,03,59,0.00
2007,04,01,04,00,0.00
2007,04,01,04,01,0.00
2007,04,01,04,02,0.00
2007,04,01,04,03,0.00
2007,04,01,04,04,0.00
2007,04,01,04,05,0.00
2007,04,01,04,06,0.00
2007,04,01,04,07,0.00
2007,04,01,04,08,0.00
2007,04,01,04,09,0.00
2007,04,01,04,10,0.00
2007,04,01,04,11,0.00
2007,04,01,04,12,0.00
2007,04,01,04,13,0.00
2007,04,01,04,14,0.00
2007,04,01,04,15,0.00
2007,04,01,04,16,0.00
2007,04,01,04,17,0.00
2007,04,01,04,18,0.00
2007,04,01,04,19,0.00
2007,04,01,04,20,0.00
2007,04,01,04,21,0.00
2007,04,01,04,22,0.00
2007,04,01,04,23,0.00
2007,04,01,04,24,0.00
2007,04,01,04,25,0.00
2007,04,01,04,26,0.00
2007,04,01,04,27,0.00
2007,04,01,04,28,0.00
2007,04,01,04,29,0.00
2007,04,01,04,30,0.00
2007,04,01,04,31,0.00
2007,04,01,04,32,0.00
2007,04,01,04,33,0.00
2007,04,01,04,34,0.00
2007,04,01,04,35,0.00
2007,04,01,04,36,0.00
2007,04,01,04,37,0.00
2007,04,01,04,38,0.00
2007,04,01,04,39,0.00
2007,04,01,04,40,0.00
2007,04,01,04,41,0.00
2007,04,01,04,42,0.00
2007,04,01,04,43,0.00
2007,04,01,04,44,0.00
2007,04,01,04,45,0.00
2007,04,01,04,46,0.00
2007,04,01,04,47,0.00
2007,04,01,04,48,0.00
2007,04,01,04,49,0.00
2007,04,01,04,50,0.00
2007,04,01,04,51,0.00
2007,04,01,04,52,0.00
2007,04,01,04,53,0.00
2007,04,01,04,54,0.00
2007,04,01,04,55,0.00
2007,04,01,04,56,0.00
2007,04,01,04,57,0.00
2007,04,01,04,58,0.00
2007,04,01,04,59,0.00
2007,04,01,05,00,0.00
2007,04,01,05,01,0.00
2007,04,01,05,02,0.00
2007,04,01,05,03,0.00
2007,04,01,05,04,0.00
2007,04,01,05,05,0.00
2007,04,01,05,06,0.00
2007,04,01,05,07,0.00
2007,04,01,05,08,0.00
2007,04,01,05,09,0.00
2007,04,01,05,10,0.00
2007,04,01,05,11,0.00
2007,04,01,05,12,0.00
2007,04,01,05,13,0.00
2007,04,01,05,14,0.00
2007,04,01,05,15,0.00
2007,04,01,05,16,0.00
2007,04,01,05,17,0.00
2007,04,01,05,18,0.00
2007,04,01,05,19,0.00
2007,04,01,05,20,0.00
2007,04,01,05,21,0.00
2007,04,01,05,22,0.00
2007,04,01,05,23,0.00
2007,04,01,05,24,0.00
2007,04,01,05,25,0.00
2007,04,01,05,26,0.00
2007,04,01,05,27,0.00
2007,04,01,05,28,0.00
2007,04,01,05,29,0.00
2007,04,01,05,30,0.00
2007,04,01,05,31,0.00
2007,04,01,05,32,0.00
2007,04,01,05,33,0.00
2007,04,01,05,34,0.00
2007,04,01,05,35,0.00
2007,04,01,05,36,0.00
2007,04,01,05,37,0.00
2007,04,01,05,38,0.00
2007,04,01,05,39,0.00
2007,04,01,05,40,0.00
2007,04,01,05,41,0.00
2007,04,01,05,42,0.00
2007,04,01,05,43,0.00
2007,04,01,05,44,0.00
2007,04,01,05,45,0.00
2007,04,01,05,46,0.00
2007,04,01,05,47,0.00
2007,04,01,05,48,0.00
2007,04,01,05,49,0.00
2007,04,01,05,50,0.00
2007,04,01,05,51,0.00
2007,04,01,05,52,0.00
2007,04,01,05,53,0.00
2007,04,01,05,54,0.00
2007,04,01,05,55,0.00
2007,04,01,05,56,0.00
2007,04,01,05,57,0.00
2007,04,01,05,58,0.00
2007,04,01,05,59,0.00
2007,04,01,06,00,0.00
2007,04,01,06,01,0.00
2007,04,01,06,02,0.00
2007,04,01,06,03,0.00
2007,04,01,06,04,0.00
2007,04,01,06,05,0.00
2007,04,01,06,06,0.00
2007,04,01,06,07,0.00
2007,04,01,06,08,0.00
2007,04,01,06,09,0.00
2007,04,01,06,10,0.00
2007,04,01,06,11,0.00
2007,04,01,06,12,0.00
2007,04,01,06,13,0.00
2007,04,01,06,14,0.00
2007,04,01,06,15,0.00
2007,04,01,06,16,0.00
2007,04,01,06,17,0.00
2007,04,01,06,18,0.00
2007,04,01,06,19,0.00
2007,04,01,06,20,0.00
2007,04,01,06,21,0.00
2007,04,01,06,22,0.00
2007,04,01,06,23,0.00
2007,04,01,06,24,0.00
2007,04,01,06,25,0.00
2007,04,01,06,26,0.00
2007,04,01,06,27,0.00
2007,04,01,06,28,0.00
2007,04,01,06,29,0.00
2007,04,01,06,30,0.00
2007,04,01,06,31,0.00
2007,04,01,06,32,0.00
2007,04,01,06,33,0.00
2007,04,01,06,34,0.00
2007,04,01,06,35,0.00
2007,04,01,06,36,0.00
2007,04,01,06,37,0.00
2007,04,01,06,38,0.00
2007,04,01,06,39,0.00
2007,04,01,06,40,0.00
2007,04,01,06,41,0.00
2007,04,01,06,42,0.00
2007,04,01,06,43,0.00
2007,04,01,06,44,0.00
2007,04,01,06,45,0.00
2007,04,01,06,46,0.00
2007,04,01,06,47,0.00
2007,04,01,06,48,0.00
2007,04,01,06,49,0.00
2007,04,01,06,50,0.00
2007,04,01,06,51,0.00
2007,04,01,06,52,0.00
2007,04,01,06,53,0.00
2007,04,01,06,54,0.00
2007,04,01,06,55,0.00
2007,04,01,06,56,0.00
2007,04,01,06,57,0.00
2007,04,01,06,58,0.00
2007,04,01,06,59,0.00
2007,04,01,07,00,0.00
2007,04,01,07,01,0.00
2007,04,01,07,02,0.00
2007,04,01,07,03,0.00
2007,04,01,07,04,0.70
2007,04,01,07,05,5.00
2007,04,01,07,06,5.00
2007,04,01,07,07,5.00
2007,04,01,07,08,5.00
2007,04,01,07,09,6.70
2007,04,01,07,10,9.30
2007,04,01,07,11,11.30
2007,04,01,07,12,12.00
2007,04,01,07,13,13.20
2007,04,01,07,14,14.00
2007,04,01,07,15,14.00
2007,04,01,07,16,14.40
2007,04,01,07,17,15.30
2007,04,01,07,18,14.90
2007,04,01,07,19,16.00
2007,04,01,07,20,16.00
2007,04,01,07,21,16.10
2007,04,01,07,22,18.00
2007,04,01,07,23,18.00
2007,04,01,07,24,18.00
2007,04,01,07,25,18.00
2007,04,01,07,26,18.00
2007,04,01,07,27,18.00
2007,04,01,07,28,18.00
2007,04,01,07,29,18.40
2007,04,01,07,30,19.00
2007,04,01,07,31,19.00
2007,04,01,07,32,19.00
2007,04,01,07,33,20.90
2007,04,01,07,34,21.00
2007,04,01,07,35,21.80
2007,04,01,07,36,23.00
2007,04,01,07,37,24.40
2007,04,01,07,38,25.00
2007,04,01,07,39,26.20
2007,04,01,07,40,28.00
2007,04,01,07,41,28.80
2007,04,01,07,42,31.00
2007,04,01,07,43,32.70
2007,04,01,07,44,33.00
2007,04,01,07,45,35.30
2007,04,01,07,46,37.00
2007,04,01,07,47,37.80
2007,04,01,07,48,39.60
2007,04,01,07,49,41.40
2007,04,01,07,50,43.80
2007,04,01,07,51,49.40
2007,04,01,07,52,51.70
2007,04,01,07,53,53.00
2007,04,01,07,54,51.80
2007,04,01,07,55,48.00
2007,04,01,07,56,45.90
2007,04,01,07,57,42.00
2007,04,01,07,58,41.30
2007,04,01,07,59,40.00
2007,04,01,08,00,40.00
2007,04,01,08,01,41.60
2007,04,01,08,02,44.00
2007,04,01,08,03,46.00
2007,04,01,08,04,46.00
2007,04,01,08,05,45.00
2007,04,01,08,06,45.30
2007,04,01,08,07,44.40
2007,04,01,08,08,44.20
2007,04,01,08,09,46.20
2007,04,01,08,10,47.00
2007,04,01,08,11,47.00
2007,04,01,08,12,47.00
2007,04,01,08,13,47.00
2007,04,01,08,14,48.90
2007,04,01,08,15,49.00
2007,04,01,08,16,49.00
2007,04,01,08,17,49.00
2007,04,01,08,18,49.00
2007,04,01,08,19,49.00
2007,04,01,08,20,50.70
2007,04,01,08,21,48.50
2007,04,01,08,22,47.90
2007,04,01,08,23,49.00
2007,04,01,08,24,49.00
2007,04,01,08,25,47.30
2007,04,01,08,26,43.70
2007,04,01,08,27,42.50
2007,04,01,08,28,44.90
2007,04,01,08,29,44.90
2007,04,01,08,30,42.50
2007,04,01,08,31,43.80
2007,04,01,08,32,40.00
2007,04,01,08,33,39.70
2007,04,01,08,34,38.00
2007,04,01,08,35,37.00
2007,04,01,08,36,35.50
2007,04,01,08,37,36.80
2007,04,01,08,38,37.40
2007,04,01,08,39,39.00
2007,04,01,08,40,40.40
2007,04,01,08,41,42.00
2007,04,01,08,42,40.50
2007,04,01,08,43,43.60
2007,04,01,08,44,42.00
2007,04,01,08,45,42.60
2007,04,01,08,46,45.00
2007,04,01,08,47,46.00
2007,04,01,08,48,46.80
2007,04,01,08,49,48.80
2007,04,01,08,50,49.40
2007,04,01,08,51,50.20
2007,04,01,08,52,51.60
2007,04,01,08,53,51.80
2007,04,01,08,54,56.80
2007,04,01,08,55,71.00
2007,04,01,08,56,87.90
2007,04,01,08,57,93.00
2007,04,01,08,58,83.10
2007,04,01,08,59,77.50
2007,04,01,09,00,82.50
2007,04,01,09,01,71.10
2007,04,01,09,02,83.10
2007,04,01,09,03,144.90
2007,04,01,09,04,229.50
2007,04,01,09,05,208.00
2007,04,01,09,06,249.40
2007,04,01,09,07,335.90
2007,04,01,09,08,312.50
2007,04,01,09,09,302.70
2007,04,01,09,10,365.00
2007,04,01,09,11,402.40
2007,04,01,09,12,422.00
2007,04,01,09,13,415.40
2007,04,01,09,14,407.40
2007,04,01,09,15,389.30
2007,04,01,09,16,317.80
2007,04,01,09,17,332.10
2007,04,01,09,18,340.30
2007,04,01,09,19,203.00
2007,04,01,09,20,153.30
2007,04,01,09,21,144.00
2007,04,01,09,22,128.80
2007,04,01,09,23,131.10
2007,04,01,09,24,135.00
2007,04,01,09,25,138.00
2007,04,01,09,26,144.30
2007,04,01,09,27,140.90
2007,04,01,09,28,128.70
2007,04,01,09,29,127.80
2007,04,01,09,30,137.60
2007,04,01,09,31,132.40
2007,04,01,09,32,123.50
2007,04,01,09,33,115.90
2007,04,01,09,34,113.30
2007,04,01,09,35,113.00
2007,04,01,09,36,114.20
2007,04,01,09,37,116.50
2007,04,01,09,38,118.70
2007,04,01,09,39,120.50
2007,04,01,09,40,122.30
2007,04,01,09,41,123.00
2007,04,01,09,42,119.80
2007,04,01,09,43,116.50
2007,04,01,09,44,118.90
2007,04,01,09,45,120.00
2007,04,01,09,46,118.60
2007,04,01,09,47,118.00
2007,04,01,09,48,115.30
2007,04,01,09,49,110.50
2007,04,01,09,50,110.60
2007,04,01,09,51,117.30
2007,04,01,09,52,128.60
2007,04,01,09,53,142.40
2007,04,01,09,54,158.30
2007,04,01,09,55,158.70
2007,04,01,09,56,153.80
2007,04,01,09,57,149.20
2007,04,01,09,58,142.70
2007,04,01,09,59,141.90
2007,04,01,10,00,159.70
2007,04,01,10,01,188.30
2007,04,01,10,02,211.70
2007,04,01,10,03,200.00
2007,04,01,10,04,204.20
2007,04,01,10,05,209.00
2007,04,01,10,06,220.30
2007,04,01,10,07,271.00
2007,04,01,10,08,271.00
2007,04,01,10,09,271.00
2007,04,01,10,10,271.00
2007,04,01,10,11,292.20
2007,04,01,10,12,515.40
2007,04,01,10,13,523.90
2007,04,01,10,14,550.60
2007,04,01,10,15,574.70
2007,04,01,10,16,583.90
2007,04,01,10,17,618.00
2007,04,01,10,18,594.00
2007,04,01,10,19,594.00
2007,04,01,10,20,313.10
2007,04,01,10,21,79.00
2007,04,01,10,22,79.00
2007,04,01,10,23,524.10
2007,04,01,10,24,464.00
2007,04,01,10,25,464.00
2007,04,01,10,26,464.00
2007,04,01,10,27,546.20
2007,04,01,10,28,587.40
2007,04,01,10,29,617.00
2007,04,01,10,30,617.00
2007,04,01,10,31,617.00
2007,04,01,10,32,608.70
2007,04,01,10,33,610.30
2007,04,01,10,34,638.90
2007,04,01,10,35,640.00
2007,04,01,10,36,621.00
2007,04,01,10,37,620.00
2007,04,01,10,38,629.20
2007,04,01,10,39,635.00
2007,04,01,10,40,186.40
2007,04,01,10,41,185.00
2007,04,01,10,42,223.10
2007,04,01,10,43,264.00
2007,04,01,10,44,488.60
2007,04,01,10,45,614.00
2007,04,01,10,46,613.00
2007,04,01,10,47,612.80
2007,04,01,10,48,612.30
2007,04,01,10,49,613.00
2007,04,01,10,50,611.10
2007,04,01,10,51,610.00
2007,04,01,10,52,609.90
2007,04,01,10,53,608.50
2007,04,01,10,54,610.00
2007,04,01,10,55,611.50
2007,04,01,10,56,612.30
2007,04,01,10,57,612.80
2007,04,01,10,58,615.30
2007,04,01,10,59,619.00
2007,04,01,11,00,619.00
2007,04,01,11,01,620.00
2007,04,01,11,02,619.60
2007,04,01,11,03,623.30
2007,04,01,11,04,629.60
2007,04,01,11,05,637.70
2007,04,01,11,06,651.70
2007,04,01,11,07,661.00
2007,04,01,11,08,661.00
2007,04,01,11,09,656.90
2007,04,01,11,10,651.20
2007,04,01,11,11,665.20
2007,04,01,11,12,703.10
2007,04,01,11,13,738.20
2007,04,01,11,14,747.00
2007,04,01,11,15,255.60
2007,04,01,11,16,212.40
2007,04,01,11,17,226.50
2007,04,01,11,18,239.90
2007,04,01,11,19,250.90
2007,04,01,11,20,281.20
2007,04,01,11,21,278.40
2007,04,01,11,22,257.00
2007,04,01,11,23,257.00
2007,04,01,11,24,251.10
2007,04,01,11,25,239.10
2007,04,01,11,26,236.00
2007,04,01,11,27,236.00
2007,04,01,11,28,236.00
2007,04,01,11,29,236.00
2007,04,01,11,30,236.00
2007,04,01,11,31,236.00
2007,04,01,11,32,312.90
2007,04,01,11,33,286.20
2007,04,01,11,34,295.10
2007,04,01,11,35,330.00
2007,04,01,11,36,388.00
2007,04,01,11,37,642.80
2007,04,01,11,38,752.00
2007,04,01,11,39,701.40
2007,04,01,11,40,767.30
2007,04,01,11,41,764.70
2007,04,01,11,42,785.50
2007,04,01,11,43,791.00
2007,04,01,11,44,791.00
2007,04,01,11,45,791.00
2007,04,01,11,46,791.00
2007,04,01,11,47,791.00
2007,04,01,11,48,599.80
2007,04,01,11,49,438.00
2007,04,01,11,50,666.00
2007,04,01,11,51,714.00
2007,04,01,11,52,540.30
2007,04,01,11,53,82.40
2007,04,01,11,54,78.10
2007,04,01,11,55,74.60
2007,04,01,11,56,101.50
2007,04,01,11,57,119.40
2007,04,01,11,58,128.00
2007,04,01,11,59,376.70
2007,04,01,12,00,700.00
2007,04,01,12,01,700.00
2007,04,01,12,02,765.20
2007,04,01,12,03,791.40
2007,04,01,12,04,784.60
2007,04,01,12,05,779.80
2007,04,01,12,06,743.10
2007,04,01,12,07,749.50
2007,04,01,12,08,759.30
2007,04,01,12,09,768.00
2007,04,01,12,10,768.00
2007,04,01,12,11,561.10
2007,04,01,12,12,373.00
2007,04,01,12,13,539.90
2007,04,01,12,14,562.70
2007,04,01,12,15,489.00
2007,04,01,12,16,489.00
2007,04,01,12,17,446.50
2007,04,01,12,18,399.30
2007,04,01,12,19,397.00
2007,04,01,12,20,717.00
2007,04,01,12,21,717.00
2007,04,01,12,22,538.20
2007,04,01,12,23,260.00
2007,04,01,12,24,260.00
2007,04,01,12,25,260.00
2007,04,01,12,26,260.00
2007,04,01,12,27,284.60
2007,04,01,12,28,315.30
2007,04,01,12,29,313.50
2007,04,01,12,30,356.30
2007,04,01,12,31,385.30
2007,04,01,12,32,390.00
2007,04,01,12,33,499.90
2007,04,01,12,34,787.30
2007,04,01,12,35,778.30
2007,04,01,12,36,779.10
2007,04,01,12,37,793.60
2007,04,01,12,38,799.70
2007,04,01,12,39,765.60
2007,04,01,12,40,737.00
2007,04,01,12,41,737.00
2007,04,01,12,42,788.00
2007,04,01,12,43,809.80
2007,04,01,12,44,827.00
2007,04,01,12,45,833.00
2007,04,01,12,46,848.50
2007,04,01,12,47,835.20
2007,04,01,12,48,805.60
2007,04,01,12,49,825.80
2007,04,01,12,50,811.50
2007,04,01,12,51,833.00
2007,04,01,12,52,833.00
2007,04,01,12,53,833.00
2007,04,01,12,54,833.00
2007,04,01,12,55,779.80
2007,04,01,12,56,760.50
2007,04,01,12,57,757.90
2007,04,01,12,58,753.40
2007,04,01,12,59,762.60
2007,04,01,13,00,768.00
2007,04,01,13,01,767.80
2007,04,01,13,02,770.30
2007,04,01,13,03,784.00
2007,04,01,13,04,462.90
2007,04,01,13,05,149.20
2007,04,01,13,06,139.00
2007,04,01,13,07,197.80
2007,04,01,13,08,780.20
2007,04,01,13,09,760.10
2007,04,01,13,10,756.00
2007,04,01,13,11,768.10
2007,04,01,13,12,803.80
2007,04,01,13,13,825.50
2007,04,01,13,14,804.20
2007,04,01,13,15,793.80
2007,04,01,13,16,748.00
2007,04,01,13,17,782.50
2007,04,01,13,18,818.10
2007,04,01,13,19,759.20
2007,04,01,13,20,490.00
2007,04,01,13,21,490.00
2007,04,01,13,22,725.60
2007,04,01,13,23,897.90
2007,04,01,13,24,921.20
2007,04,01,13,25,844.00
2007,04,01,13,26,844.00
2007,04,01,13,27,763.30
2007,04,01,13,28,668.00
2007,04,01,13,29,668.00
2007,04,01,13,30,658.10
2007,04,01,13,31,450.00
2007,04,01,13,32,351.70
2007,04,01,13,33,185.30
2007,04,01,13,34,172.40
2007,04,01,13,35,165.80
2007,04,01,13,36,171.10
2007,04,01,13,37,190.10
2007,04,01,13,38,209.80
2007,04,01,13,39,224.80
2007,04,01,13,40,288.70
2007,04,01,13,41,318.00
2007,04,01,13,42,652.80
2007,04,01,13,43,704.40
2007,04,01,13,44,820.90
2007,04,01,13,45,805.20
2007,04,01,13,46,805.50
2007,04,01,13,47,831.50
2007,04,01,13,48,795.80
2007,04,01,13,49,869.00
2007,04,01,13,50,872.00
2007,04,01,13,51,872.00
2007,04,01,13,52,853.40
2007,04,01,13,53,834.20
2007,04,01,13,54,877.00
2007,04,01,13,55,677.60
2007,04,01,13,56,179.00
2007,04,01,13,57,409.90
2007,04,01,13,58,606.50
2007,04,01,13,59,662.50
2007,04,01,14,00,666.00
2007,04,01,14,01,666.00
2007,04,01,14,02,666.00
2007,04,01,14,03,769.80
2007,04,01,14,04,844.00
2007,04,01,14,05,240.80
2007,04,01,14,06,134.10
2007,04,01,14,07,118.70
2007,04,01,14,08,117.00
2007,04,01,14,09,132.10
2007,04,01,14,10,168.20
2007,04,01,14,11,210.00
2007,04,01,14,12,848.00
2007,04,01,14,13,836.90
2007,04,01,14,14,830.30
2007,04,01,14,15,822.60
2007,04,01,14,16,813.60
2007,04,01,14,17,797.80
2007,04,01,14,18,784.50
2007,04,01,14,19,785.70
2007,04,01,14,20,766.70
2007,04,01,14,21,781.30
2007,04,01,14,22,791.00
2007,04,01,14,23,791.40
2007,04,01,14,24,792.50
2007,04,01,14,25,779.10
2007,04,01,14,26,774.70
2007,04,01,14,27,785.00
2007,04,01,14,28,818.90
2007,04,01,14,29,770.60
2007,04,01,14,30,237.00
2007,04,01,14,31,237.00
2007,04,01,14,32,237.00
2007,04,01,14,33,723.40
2007,04,01,14,34,930.10
2007,04,01,14,35,901.80
2007,04,01,14,36,865.00
2007,04,01,14,37,859.10
2007,04,01,14,38,858.00
2007,04,01,14,39,858.00
2007,04,01,14,40,858.00
2007,04,01,14,41,137.80
2007,04,01,14,42,133.00
2007,04,01,14,43,137.70
2007,04,01,14,44,141.00
2007,04,01,14,45,136.40
2007,04,01,14,46,131.90
2007,04,01,14,47,122.50
2007,04,01,14,48,118.80
2007,04,01,14,49,114.60
2007,04,01,14,50,110.30
2007,04,01,14,51,109.00
2007,04,01,14,52,110.70
2007,04,01,14,53,109.40
2007,04,01,14,54,111.70
2007,04,01,14,55,115.40
2007,04,01,14,56,122.60
2007,04,01,14,57,133.20
2007,04,01,14,58,141.40
2007,04,01,14,59,137.40
2007,04,01,15,00,131.20
2007,04,01,15,01,131.00
2007,04,01,15,02,140.60
2007,04,01,15,03,155.60
2007,04,01,15,04,169.40
2007,04,01,15,05,181.00
2007,04,01,15,06,191.50
2007,04,01,15,07,231.00
2007,04,01,15,08,268.00
2007,04,01,15,09,269.30
2007,04,01,15,10,283.40
2007,04,01,15,11,298.80
2007,04,01,15,12,303.50
2007,04,01,15,13,317.30
2007,04,01,15,14,398.00
2007,04,01,15,15,466.00
2007,04,01,15,16,458.30
2007,04,01,15,17,341.10
2007,04,01,15,18,307.50
2007,04,01,15,19,325.00
2007,04,01,15,20,325.00
2007,04,01,15,21,661.00
2007,04,01,15,22,692.50
2007,04,01,15,23,689.00
2007,04,01,15,24,689.00
2007,04,01,15,25,705.30
2007,04,01,15,26,717.00
2007,04,01,15,27,717.00
2007,04,01,15,28,717.00
2007,04,01,15,29,541.10
2007,04,01,15,30,143.10
2007,04,01,15,31,187.30
2007,04,01,15,32,212.50
2007,04,01,15,33,199.30
2007,04,01,15,34,185.80
2007,04,01,15,35,163.30
2007,04,01,15,36,155.50
2007,04,01,15,37,155.00
2007,04,01,15,38,153.40
2007,04,01,15,39,160.20
2007,04,01,15,40,182.60
2007,04,01,15,41,195.80
2007,04,01,15,42,193.30
2007,04,01,15,43,188.70
2007,04,01,15,44,184.00
2007,04,01,15,45,171.20
2007,04,01,15,46,156.40
2007,04,01,15,47,151.00
2007,04,01,15,48,153.60
2007,04,01,15,49,160.20
2007,04,01,15,50,166.30
2007,04,01,15,51,171.20
2007,04,01,15,52,174.00
2007,04,01,15,53,174.80
2007,04,01,15,54,177.60
2007,04,01,15,55,181.80
2007,04,01,15,56,185.60
2007,04,01,15,57,187.70
2007,04,01,15,58,185.70
2007,04,01,15,59,184.10
2007,04,01,16,00,180.00
2007,04,01,16,01,176.60
2007,04,01,16,02,177.80
2007,04,01,16,03,179.00
2007,04,01,16,04,179.00
2007,04,01,16,05,179.00
2007,04,01,16,06,180.20
2007,04,01,16,07,179.50
2007,04,01,16,08,176.30
2007,04,01,16,09,206.20
2007,04,01,16,10,272.00
2007,04,01,16,11,348.80
2007,04,01,16,12,441.00
2007,04,01,16,13,308.70
2007,04,01,16,14,246.10
2007,04,01,16,15,206.50
2007,04,01,16,16,158.00
2007,04,01,16,17,116.00
2007,04,01,16,18,90.00
2007,04,01,16,19,91.00
2007,04,01,16,20,93.50
2007,04,01,16,21,61.00
2007,04,01,16,22,57.00
2007,04,01,16,23,72.40
2007,04,01,16,24,84.40
2007,04,01,16,25,83.50
2007,04,01,16,26,73.50
2007,04,01,16,27,73.60
2007,04,01,16,28,90.40
2007,04,01,16,29,101.50
2007,04,01,16,30,121.70
2007,04,01,16,31,121.00
2007,04,01,16,32,96.70
2007,04,01,16,33,102.60
2007,04,01,16,34,114.70
2007,04,01,16,35,124.50
2007,04,01,16,36,124.40
2007,04,01,16,37,124.70
2007,04,01,16,38,111.80
2007,04,01,16,39,95.60
2007,04,01,16,40,75.40
2007,04,01,16,41,57.60
2007,04,01,16,42,51.50
2007,04,01,16,43,51.00
2007,04,01,16,44,48.70
2007,04,01,16,45,47.60
2007,04,01,16,46,47.00
2007,04,01,16,47,52.20
2007,04,01,16,48,66.50
2007,04,01,16,49,73.50
2007,04,01,16,50,83.50
2007,04,01,16,51,91.50
2007,04,01,16,52,115.50
2007,04,01,16,53,128.00
2007,04,01,16,54,109.50
2007,04,01,16,55,102.20
2007,04,01,16,56,100.40
2007,04,01,16,57,90.50
2007,04,01,16,58,81.90
2007,04,01,16,59,75.10
2007,04,01,17,00,81.40
2007,04,01,17,01,104.80
2007,04,01,17,02,135.80
2007,04,01,17,03,134.40
2007,04,01,17,04,122.00
2007,04,01,17,05,131.00
2007,04,01,17,06,120.30
2007,04,01,17,07,100.30
2007,04,01,17,08,70.00
2007,04,01,17,09,47.60
2007,04,01,17,10,39.30
2007,04,01,17,11,35.70
2007,04,01,17,12,32.40
2007,04,01,17,13,33.50
2007,04,01,17,14,41.00
2007,04,01,17,15,45.20
2007,04,01,17,16,41.20
2007,04,01,17,17,36.10
2007,04,01,17,18,36.70